Location: Four Corners
(38.2757°N, 122.4608°W)
Time: 08:28:56
(UTC+00:00)

Feng Yun 1-1 Rocket - Pass Details

Date: 08 December 2019
Orbit: 830 x 933 km, 99.2° (Epoch: 17 January)

Event Time Altitude Azimuth Distance (km) Brightness Sun altitude
Rises 01:16:53 0° 154° (SSE) 3,382 7.3 -5.7°
Reaches altitude 10° 01:19:16 10° 150° (SSE) 2,443 6.6 -6.1°
Maximum altitude 01:24:34 59° 72° (ENE) 953 4.2 -7.0°
Drops below altitude 10° 01:29:51 10° 354° (N) 2,444 6.4 -8.0°
Sets 01:32:14 0° 351° (N) 3,385 7.2 -8.4°
